Flag for India Weather past 2 weeks in Muktsar, Punjab, India

Now
97 °F

Clear.


Feels Like: 102 °F
Forecast: 79 / 101 °F
Wind: 9 mph from West

Location: Lahore Airport

Current Time: Sep 5, 2015 at 12:21:57 PM

Latest Report: Sep 5, 2015 at 11:25 AM


Visibility: 5 mi

Pressure: 29.83 "Hg

Humidity: 39%

Dew point: 68 °F

Location of MuktsarLocation

Historic Weather in Muktsar — Graph

°F

Muktsar temperature yesterday

Maximum temperature yesterday: 99 °F (at 2:25 PM)
Minimum temperature yesterday: 79 °F (at 6:25 AM)
Average temperature yesterday: 88 °F

Past Weeks' High & Low Weather Summary

 TemperatureHumidityPressure
High102 °F (Sep 1, 2:30 PM)100% (Aug 21, 2:55 PM)29.86 "Hg (Aug 21, 2:55 PM)
Low72 °F (Sep 5, 4:25 AM)35% (Aug 31, 3:25 PM)29.53 "Hg (Aug 22, 5:25 PM)
Average88 °F65%29.63 "Hg
* Reported Aug 21 10:55 AM — Sep 5 11:25 AM, Muktsar, Weather by CustomWeather, © 2015

Note: Actual official high and low records may vary slightly from our data, if they occured in-between our weather recording intervals... More about our weather records

Advertising

Muktsar weather history for previous 24 hours

 ConditionsComfort  
Time TempWeatherWind HumidityBarometerVisibility
11:25 AM
Sat, Sep 5
97 °FClear.9 mph39%29.83 "Hg5 mi
10:55 AM95 °FClear.9 mph44%29.86 "Hg5 mi
10:25 AM95 °FClear.7 mph44%29.86 "Hg4 mi
10:00 AM93 °FClear.6 mph49%29.83 "Hg4 mi
9:34 AM90 °FPassing clouds.6 mph55%29.83 "Hg4 mi
9:00 AM88 °FPassing clouds.6 mph59%29.83 "Hg3 mi
8:25 AM84 °FPassing clouds.6 mph66%29.83 "Hg3 mi
7:55 AM82 °FPassing clouds.3 mph66%29.83 "Hg3 mi
7:25 AM81 °FPassing clouds.3 mph70%29.80 "Hg3 mi
6:55 AM81 °FPassing clouds.No wind66%29.80 "Hg2 mi
6:25 AM79 °FClear.No wind70%29.80 "Hg2 mi
5:55 AM81 °FClear.No wind70%29.80 "Hg2 mi
5:25 AM81 °FClear.No wind70%29.77 "Hg2 mi
4:55 AM81 °FClear.No wind70%29.77 "Hg2 mi
4:25 AM72 °FClear.No wind94%29.77 "Hg2 mi
3:55 AM82 °FClear.5 mph70%29.77 "Hg2 mi
3:25 AM82 °FClear.5 mph70%29.77 "Hg2 mi
2:55 AM82 °FClear.5 mph70%29.80 "Hg2 mi
2:25 AM82 °FClear.5 mph70%29.80 "Hg2 mi
1:55 AM82 °FClear.3 mph70%29.80 "Hg2 mi
1:25 AM84 °FClear.3 mph66%29.80 "Hg2 mi
12:55 AM84 °FClear.No wind66%29.80 "Hg2 mi
12:25 AM84 °FClear.No wind66%29.80 "Hg2 mi
11:55 PM
Fri, Sep 4
84 °FClear.3 mph70%29.80 "Hg2 mi
11:25 PM86 °FClear.No wind66%29.80 "Hg2 mi
10:55 PM86 °FClear.No wind70%29.80 "Hg2 mi
10:25 PM86 °FClear.3 mph70%29.80 "Hg2 mi
9:55 PM88 °FClear.No wind62%29.80 "Hg2 mi
2:55 PM99 °FScattered clouds.6 mph44%29.80 "Hg4 mi
2:25 PM99 °FScattered clouds.5 mph44%29.80 "Hg4 mi
1:55 PM97 °FScattered clouds.5 mph44%29.80 "Hg4 mi
1:25 PM97 °FScattered clouds.5 mph44%29.83 "Hg4 mi
12:55 PM97 °FPassing clouds.No wind44%29.83 "Hg4 mi
12:25 PM97 °FPassing clouds.3 mph44%29.83 "Hg4 mi
Weather by CustomWeather, © 2015

See weather overviewHow to use our weather pages